User: anonymous   Login
Location: Unspecified
(0.0000°N, 0.0000°E)
Time: 22:23:18
(UTC+00:00)
Language:

Kyokko - Orbit

View from above orbital plane
View from above orbital plane
View from above satellite
View from above satellite

Ground track
Ground track

The orbit data is extracted from the following two-line orbital elements,

1 10664U 78014A   23083.02092135  .00000030  00000-0  83496-4 0  9992
2 10664  65.3723 290.2274 1909997 301.2933  41.4633 10.75586158771097
Epoch (UTC): 24 March 2023 00:30:07
Eccentricity: 0.1909997
inclination: 65.3723°
perigee height: 635 km
apogee height: 3946 km
right ascension of ascending node: 290.2274°
argument of perigee: 301.2933°
revolutions per day: 10.75586158
mean anomaly at epoch: 41.4633°
orbit number at epoch: 77109

The dashed part of the orbit path shows where the satellite is in the earth's shadow,  

DLR